Location: Unspecified
(48.8817°N, 0.0000°E)
Time: 04:02:13
(UTC+00:00)

NOAA 16 DEB - Visible Passes

Search period start: 04 April 2026 00:00
Search period end: 14 April 2026 00:00
Orbit: 761 x 787 km, 98.7° (Epoch: 27 March)

Date Brightness Start Highest point End Pass type
(mag) Time Alt. Az. Time Alt. Az. Time Alt. Az.
4 Apr ? 22:47:13 36° NNE 22:47:13 36° NNE 22:50:27 10° N visible
5 Apr ? 00:27:35 17° NW 00:27:35 17° NW 00:29:08 10° NW visible
5 Apr ? 22:12:22 26° NE 22:12:22 26° NE 22:15:43 10° N visible
5 Apr ? 23:52:45 28° NW 23:52:45 28° NW 23:55:18 10° NNW visible
6 Apr ? 21:37:31 16° NE 21:37:32 16° NE 21:40:30 10° NNE visible
6 Apr ? 23:17:53 40° NNW 23:17:53 40° NNW 23:21:04 10° NNW visible
7 Apr ? 00:58:15 10° WNW 00:58:15 10° WNW 00:58:26 10° NW visible
7 Apr ? 22:43:01 38° NNE 22:43:01 38° NNE 22:46:34 10° N visible
8 Apr ? 00:23:23 19° NW 00:23:23 19° NW 00:25:21 10° NW visible
8 Apr ? 22:08:09 25° NE 22:08:09 25° NE 22:11:45 10° N visible
8 Apr ? 23:48:31 32° NW 23:48:31 32° NW 23:51:26 10° NNW visible
9 Apr ? 21:33:16 15° ENE 21:33:41 15° NE 21:36:25 10° NNE visible
9 Apr ? 23:13:38 45° N 23:13:38 45° N 23:17:09 10° NNW visible
10 Apr ? 00:54:00 12° WNW 00:54:00 12° WNW 00:54:45 10° NW visible
10 Apr ? 22:38:45 39° NE 22:38:45 39° NE 22:42:35 10° N visible
11 Apr ? 00:19:07 22° WNW 00:19:07 22° WNW 00:21:30 10° NW visible
11 Apr ? 22:03:51 24° ENE 22:03:51 24° ENE 22:07:42 10° N visible
11 Apr ? 23:44:13 38° NW 23:44:13 38° NW 23:47:30 10° NNW visible
12 Apr ? 21:28:57 13° ENE 21:29:47 14° NE 21:32:13 10° NNE visible
12 Apr ? 23:09:18 51° N 23:09:18 51° N 23:13:09 10° NNW visible
13 Apr ? 00:49:40 14° WNW 00:49:40 14° WNW 00:50:58 10° NW visible
13 Apr ? 22:34:24 38° NE 22:34:24 38° NE 22:38:31 10° N visible
